• In Czech Republic
  • List of Countries
  • For 7 days
  • Water Temperature
  • Satellite Maps
  • Weather Map
  • Weather Widgets
  • user-avatar
    Login

    Hourly Weather Jaú

    Today, 22 August, Tuesday

    Time Temperature Precipitation Wind Pressure Humidity
    00:00 +39°C° 0 mm 3 mps 747 mmHg 51%
    01:00 +38°C° 0 mm 3 mps 747 mmHg 53%
    02:00 +38°C° 0 mm 2 mps 747 mmHg 54%
    03:00 +38°C° 0 mm 2 mps 747 mmHg 51%
    04:00 +38°C° 0 mm 2 mps 747 mmHg 51%
    05:00 +37°C° 0 mm 2 mps 748 mmHg 52%
    06:00 +37°C° 0 mm 2 mps 748 mmHg 52%
    07:00 +39°C° 0 mm 2 mps 748 mmHg 48%
    08:00 +40°C° 0 mm 2 mps 748 mmHg 44%
    09:00 +41°C° 0 mm 1 mps 748 mmHg 39%
    10:00 +42°C° 0 mm 2 mps 748 mmHg 37%
    11:00 +43°C° 0 mm 2 mps 748 mmHg 34%
    12:00 +45°C° 0 mm 2 mps 748 mmHg 31%
    13:00 +45°C° 0 mm 2 mps 747 mmHg 31%
    14:00 +45°C° 0 mm 3 mps 747 mmHg 30%
    15:00 +47°C° 0 mm 4 mps 747 mmHg 30%
    16:00 +45°C° 0 mm 5 mps 747 mmHg 34%
    17:00 +43°C° 0 mm 5 mps 747 mmHg 38%
    18:00 +42°C° 0 mm 6 mps 747 mmHg 42%
    19:00 +42°C° 0 mm 6 mps 747 mmHg 41%
    20:00 +41°C° 0 mm 5 mps 747 mmHg 41%
    21:00 +41°C° 0 mm 5 mps 748 mmHg 41%
    22:00 +41°C° 0 mm 5 mps 748 mmHg 41%
    23:00 +41°C° 0 mm 4 mps 748 mmHg 40%

    Tomorrow, 23 August, Wednesday

    Time Temperature Precipitation Wind Pressure Humidity
    00:00 +39°C° 0 mm 3 mps 748 mmHg 40%
    01:00 +39°C° 0 mm 3 mps 748 mmHg 41%
    02:00 +38°C° 0 mm 4 mps 747 mmHg 42%
    03:00 +38°C° 0 mm 4 mps 747 mmHg 43%
    04:00 +38°C° 0 mm 3 mps 748 mmHg 47%
    05:00 +38°C° 0 mm 3 mps 748 mmHg 50%
    06:00 +37°C° 0 mm 3 mps 748 mmHg 54%
    07:00 +39°C° 0 mm 3 mps 749 mmHg 48%
    08:00 +41°C° 0 mm 4 mps 749 mmHg 42%
    09:00 +42°C° 0 mm 4 mps 750 mmHg 36%
    10:00 +43°C° 0 mm 3 mps 750 mmHg 33%
    11:00 +43°C° 0 mm 2 mps 750 mmHg 30%
    12:00 +44°C° 0 mm 1 mps 750 mmHg 27%
    13:00 +45°C° 0 mm 2 mps 749 mmHg 27%
    14:00 +45°C° 0 mm 4 mps 749 mmHg 26%
    15:00 +47°C° 0 mm 5 mps 748 mmHg 26%
    16:00 +45°C° 0 mm 5 mps 748 mmHg 29%
    17:00 +43°C° 0 mm 5 mps 748 mmHg 33%
    18:00 +42°C° 0 mm 6 mps 748 mmHg 37%
    19:00 +41°C° 0 mm 5 mps 749 mmHg 40%
    20:00 +40°C° 0 mm 5 mps 749 mmHg 44%
    21:00 +40°C° 0 mm 4 mps 750 mmHg 47%
    22:00 +38°C° 0 mm 4 mps 750 mmHg 46%
    23:00 +38°C° 0 mm 3 mps 750 mmHg 44%

    Day after tomorrow, 24 August, Thursday

    Time Temperature Precipitation Wind Pressure Humidity
    00:00 +38°C° 0 mm 3 mps 750 mmHg 43%
    01:00 +38°C° 0 mm 3 mps 749 mmHg 44%
    02:00 +37°C° 0 mm 3 mps 749 mmHg 45%
    03:00 +37°C° 0 mm 3 mps 749 mmHg 46%
    04:00 +37°C° 0 mm 3 mps 749 mmHg 48%
    05:00 +37°C° 0 mm 3 mps 750 mmHg 51%
    06:00 +37°C° 0 mm 3 mps 750 mmHg 54%
    07:00 +38°C° 0 mm 3 mps 751 mmHg 48%
    08:00 +39°C° 0 mm 3 mps 751 mmHg 43%
    09:00 +42°C° 0 mm 3 mps 751 mmHg 37%
    10:00 +41°C° 0 mm 2 mps 751 mmHg 34%
    11:00 +42°C° 0 mm 2 mps 751 mmHg 31%
    12:00 +43°C° 0 mm 2 mps 751 mmHg 29%
    13:00 +44°C° 0 mm 3 mps 750 mmHg 28%
    14:00 +45°C° 0 mm 4 mps 750 mmHg 28%
    15:00 +46°C° 0 mm 5 mps 749 mmHg 27%
    16:00 +45°C° 0 mm 5 mps 749 mmHg 32%
    17:00 +42°C° 0 mm 5 mps 749 mmHg 36%
    18:00 +41°C° 0 mm 5 mps 749 mmHg 41%
    19:00 +41°C° 0 mm 5 mps 750 mmHg 43%
    20:00 +40°C° 0 mm 4 mps 750 mmHg 45%
    21:00 +40°C° 0 mm 4 mps 751 mmHg 46%
    22:00 +38°C° 0 mm 3 mps 751 mmHg 46%
    23:00 +38°C° 0 mm 3 mps 751 mmHg 46%

    25 August, Friday

    Time Temperature Precipitation Wind Pressure Humidity
    00:00 +37°C° 0 mm 2 mps 750 mmHg 46%
    01:00 +37°C° 0 mm 2 mps 750 mmHg 48%
    02:00 +36°C° 0 mm 2 mps 750 mmHg 49%
    03:00 +36°C° 0 mm 2 mps 750 mmHg 50%
    04:00 +36°C° 0 mm 2 mps 750 mmHg 51%
    05:00 +36°C° 0 mm 2 mps 750 mmHg 52%
    06:00 +36°C° 0 mm 2 mps 751 mmHg 53%
    07:00 +37°C° 0 mm 2 mps 751 mmHg 49%
    08:00 +38°C° 0 mm 2 mps 751 mmHg 45%
    09:00 +39°C° 0 mm 1 mps 752 mmHg 41%
    10:00 +40°C° 0 mm 1 mps 751 mmHg 38%
    11:00 +41°C° 0 mm 1 mps 751 mmHg 34%
    12:00 +42°C° 0 mm 2 mps 751 mmHg 31%
    13:00 +43°C° 0 mm 2 mps 750 mmHg 29%
    14:00 +44°C° 0 mm 3 mps 749 mmHg 27%
    15:00 +45°C° 0 mm 3 mps 749 mmHg 25%
    16:00 +44°C° 0 mm 3 mps 749 mmHg 28%
    17:00 +42°C° 0 mm 4 mps 749 mmHg 31%
    18:00 +41°C° 0 mm 4 mps 749 mmHg 34%
    19:00 +40°C° 0 mm 3 mps 749 mmHg 38%
    20:00 +39°C° 0 mm 3 mps 749 mmHg 41%
    21:00 +38°C° 0 mm 3 mps 749 mmHg 45%
    22:00 +38°C° 0 mm 2 mps 749 mmHg 47%
    23:00 +37°C° 0 mm 2 mps 749 mmHg 48%

    26 August, Saturday

    Time Temperature Precipitation Wind Pressure Humidity
    00:00 +36°C° 0 mm 1 mps 748 mmHg 50%
    01:00 +35°C° 0 mm 1 mps 748 mmHg 51%
    02:00 +35°C° 0 mm 1 mps 748 mmHg 52%
    03:00 +34°C° 0 mm 1 mps 748 mmHg 53%
    04:00 +36°C° 0 mm 2 mps 748 mmHg 53%
    05:00 +36°C° 0 mm 2 mps 748 mmHg 52%
    06:00 +36°C° 0 mm 2 mps 749 mmHg 52%
    07:00 +37°C° 0 mm 2 mps 749 mmHg 46%
    08:00 +39°C° 0 mm 2 mps 749 mmHg 40%
    09:00 +40°C° 0 mm 2 mps 750 mmHg 34%
    10:00 +41°C° 0 mm 2 mps 749 mmHg 31%
    11:00 +43°C° 0 mm 2 mps 749 mmHg 28%
    12:00 +45°C° 0 mm 2 mps 748 mmHg 25%
    13:00 +45°C° 0 mm 2 mps 748 mmHg 24%
    14:00 +45°C° 0 mm 3 mps 748 mmHg 24%
    15:00 +45°C° 0 mm 3 mps 747 mmHg 23%
    16:00 +44°C° 0 mm 4 mps 747 mmHg 27%
    17:00 +43°C° 0 mm 4 mps 747 mmHg 32%
    18:00 +42°C° 0 mm 4 mps 747 mmHg 36%
    19:00 +41°C° 0 mm 4 mps 748 mmHg 39%
    20:00 +40°C° 0 mm 4 mps 748 mmHg 43%
    21:00 +38°C° 0 mm 3 mps 748 mmHg 46%
    22:00 +38°C° 0 mm 3 mps 748 mmHg 48%
    23:00 +37°C° 0 mm 2 mps 747 mmHg 49%

    27 August, Sunday

    Time Temperature Precipitation Wind Pressure Humidity
    00:00 +37°C° 0 mm 2 mps 747 mmHg 50%
    01:00 +36°C° 0 mm 2 mps 747 mmHg 51%
    02:00 +36°C° 0 mm 2 mps 747 mmHg 52%
    03:00 +36°C° 0 mm 3 mps 747 mmHg 53%
    04:00 +35°C° 0 mm 3 mps 747 mmHg 53%
    05:00 +35°C° 0 mm 3 mps 748 mmHg 54%
    06:00 +35°C° 0 mm 3 mps 748 mmHg 54%
    07:00 +37°C° 0 mm 2 mps 748 mmHg 49%
    08:00 +38°C° 0 mm 2 mps 749 mmHg 44%
    09:00 +39°C° 0 mm 1 mps 749 mmHg 40%
    10:00 +40°C° 0 mm 1 mps 749 mmHg 36%
    11:00 +41°C° 0 mm 2 mps 748 mmHg 33%
    12:00 +42°C° 0 mm 2 mps 748 mmHg 29%
    13:00 +44°C° 0 mm 3 mps 748 mmHg 28%
    14:00 +44°C° 0 mm 4 mps 747 mmHg 26%
    15:00 +45°C° 0 mm 4 mps 747 mmHg 24%
    16:00 +43°C° 0 mm 5 mps 747 mmHg 30%
    17:00 +42°C° 0 mm 5 mps 747 mmHg 36%
    18:00 +41°C° 0 mm 5 mps 747 mmHg 42%
    19:00 +40°C° 0 mm 5 mps 748 mmHg 44%
    20:00 +39°C° 0 mm 5 mps 748 mmHg 47%
    21:00 +39°C° 0 mm 5 mps 748 mmHg 50%
    22:00 +37°C° 0 mm 4 mps 748 mmHg 50%
    23:00 +37°C° 0 mm 3 mps 748 mmHg 50%
    Show more